Regional Weather Roundup
Issued by NWS Northern Indiana

Home | Current Version | Previous Version | Text Only | Print | Product List | Glossary Off
Versions: 1 2 3 4 5 6 7 8 9 10 11 12 13 14 15 16 17 18 19 20 21 22 23 24 25 26 27 28 29 30 31 32 33 34 35 36 37 38 39 40 41 42 43 44 45 46 47 48 49 50

000
ASUS43 KIWX 020800
RWRIWX

KIWX WEATHER ROUNDUP
NATIONAL WEATHER SERVICE NORTHERN INDIANA
400 AM EDT TUE JUN 02 2015

NOTE: "FAIR" INDICATES FEW OR NO CLOUDS BELOW 12,000 FEET WITH NO
SIGNIFICANT WEATHER AND/OR OBSTRUCTIONS TO VISIBILITY.

* THESE STATIONS ARE NOT UNDER NWS QUALITY CONTROL. THEY ALSO MAY NOT
  REPORT WEATHER SUCH AS PRECIPITATION OR FOG.

INZ001>027-020900-
NORTHERN INDIANA

CITY           SKY/WX    TMP DP  RH WIND       PRES   REMARKS
SOUTH BEND     CLEAR     51  46  83 E3        30.19R
GOSHEN         CLEAR     48  44  86 CALM      30.17F
ANGOLA*        CLEAR     45  28  53 CALM      30.17F
FORT WAYNE     PTCLDY    47  45  93 CALM      30.17F
PERU/GRISSOM   CLEAR     49  46  90 E7        30.14F

$$
INZ028>050-020900-
CENTRAL INDIANA

CITY           SKY/WX    TMP DP  RH WIND       PRES   REMARKS
LAFAYETTE      CLEAR     49  47  93 NE3       30.15S
KOKOMO*        CLEAR     48  45  87 NE6       30.16S
MUNCIE*        CLEAR     48  46  93 NE6       30.15F
INDIANAPOLIS   PTCLDY    52  46  80 E7        30.12F

$$
MIZ043>046-050>051-056>058-064>065-071>073-077>080-020900-
SOUTHWEST LOWER MICHIGAN

CITY           SKY/WX    TMP DP  RH WIND       PRES   REMARKS
BATTLE CREEK   CLEAR     44  41  89 CALM      30.19F
BENTON HARBOR  CLEAR     43  42  97 CALM      30.17S
COLDWATER*     CLEAR     43  42  98 CALM      30.18S
HILLSDALE*     CLEAR     42  42 100 CALM      30.17F
HOLLAND        CLEAR     47  37  68 NE3       30.20S
GRAND RAPIDS   CLEAR     42  36  79 NE5       30.20F
KALAMAZOO      CLEAR     46  42  86 CALM      30.19S
STURGIS*       CLEAR     46  45  93 CALM      30.17F
THREE RIVERS*  FAIR      47  44  88 CALM      30.18S

$$
OHZ001>008-015>018-024>025-020900-
NORTHWEST OHIO

CITY           SKY/WX    TMP DP  RH WIND       PRES   REMARKS
DEFIANCE       CLEAR     47  44  90 CALM      30.17F
FINDLAY        PTCLDY    50  47  89 N5        30.14F
TOLEDO EXPRESS CLEAR     46  41  82 NE5       30.16F
TOLEDO METCALF CLEAR     53  44  71 NE5       30.17F
LIMA           PTCLDY    47  45  93 CALM      30.15S FOG

$$
AND FOR LAKE MICHIGAN COASTAL AND OPEN LAKE BUOY OBSERVATIONS

STATION/POSITION TEMP    WIND        PRES    VSBY  WAVE
                 AIR SEA DIR/SP/G                  HT/PER
                 (F)     (DEG/KT/KT) (MB)    (MI)  (FT/S)
CALUMET HARBOR    48     360/  3/  4   N/A
MICHIGAN CITY     48     120/  2/  4   N/A
BURNS HARBOR             150/  1/  2 1022.4S
SAINT JOSEPH      49      CALM  /  2 1022.4F
SOUTH LAKE BUOY   44 38   60/  8/  8 1022.8R         1/ 4
4 MI NW BRIDGMAN  53 55  150/ 10/ 12   N/A           1/ 4
MICHIGAN CITY     51 56   CALM  /  2   N/A           2/ 5

$$
&&


USA.gov is the U.S. government's official web portal to all federal, state and local government web resources and services.